This is the latest recevied weather packets stored in our database for station/object IW2HNF-3. If no packets are shown the sender has not sent any weather packets the latest 10 day(s).
| Time | Temp. | Humidity | Pressure | Rain* | Wind** | Luminosity | Snow |
|---|---|---|---|---|---|---|---|
| 1788369051 | 29.44° C | 48% | 1015.8 hPa | 0 mm | - | - | - |
| 1788368428 | 30° C | 47% | 1015.9 hPa | 0 mm | - | - | - |
| 1788367851 | 30° C | 45% | 1015.8 hPa | 0 mm | - | - | - |
| 1788367227 | 30° C | 44% | 1015.8 hPa | 0 mm | - | - | - |
| 1788366651 | 30° C | 43% | 1015.8 hPa | 0 mm | - | - | - |
| 1788365451 | 30° C | 45% | 1015.8 hPa | 0 mm | - | - | - |
| 1788362427 | 30° C | 44% | 1016.2 hPa | 0 mm | - | - | - |
| 1788361228 | 30° C | 45% | 1016.4 hPa | 0 mm | - | - | - |
| 1788358827 | 30.56° C | 45% | 1016.6 hPa | 0 mm | - | - | - |
| 1788358251 | 30.56° C | 44% | 1016.7 hPa | 0 mm | - | - | - |
| 1788357675 | 30° C | 46% | 1016.7 hPa | 0 mm | - | - | - |
| 1788357052 | 30° C | 48% | 1016.7 hPa | 0 mm | - | - | - |
| 1788356428 | 30° C | 46% | 1016.8 hPa | 0 mm | - | - | - |
| 1788355852 | 30° C | 50% | 1016.9 hPa | 0 mm | - | - | - |
| 1788355227 | 30° C | 50% | 1017.1 hPa | 0 mm | - | - | - |
| 1788354651 | 30° C | 51% | 1017.2 hPa | 0 mm | - | - | - |
| 1788354028 | 29.44° C | 51% | 1017.3 hPa | 0 mm | - | - | - |
| 1788353452 | 29.44° C | 52% | 1017.3 hPa | 0 mm | - | - | - |
| 1788352827 | 29.44° C | 51% | 1017.4 hPa | 0 mm | - | - | - |
| 1788352251 | 29.44° C | 51% | 1017.6 hPa | 0 mm | - | - | - |
| 1788351628 | 29.44° C | 51% | 1017.7 hPa | 0 mm | - | - | - |
| 1788351052 | 29.44° C | 53% | 1017.8 hPa | 0 mm | - | - | - |
| 1788349852 | 28.89° C | 54% | 1017.9 hPa | 0 mm | - | - | - |
| 1788349227 | 28.33° C | 54% | 1018 hPa | 0 mm | - | - | - |
| 1788348651 | 28.89° C | 54% | 1018.1 hPa | 0 mm | - | - | - |
* Rain latest hour (hover to see other rain measurements)
** Current wind speed in m/s (hover to see current wind gust speed)